This is the latest recevied weather packets stored in our database for station/object S54Z-11. If no packets are shown the sender has not sent any weather packets the latest 10 day(s).
| Time | Temp. | Humidity | Pressure | Rain* | Wind** | Luminosity | Snow |
|---|---|---|---|---|---|---|---|
| 1777210765 | 20° C | 32% | 1020.5 hPa | - | - | - | - |
| 1777209865 | 20.56° C | 32% | 1020.4 hPa | - | - | - | - |
| 1777208965 | 20° C | 31% | 1020.5 hPa | - | - | - | - |
| 1777208065 | 20° C | 31% | 1020.5 hPa | - | - | - | - |
| 1777207165 | 21.11° C | 31% | 1020.6 hPa | - | - | - | - |
| 1777206265 | 20.56° C | 31% | 1020.8 hPa | - | - | - | - |
| 1777205365 | 20.56° C | 33% | 1020.6 hPa | - | - | - | - |
| 1777204465 | 20.56° C | 29% | 1020.7 hPa | - | - | - | - |
| 1777203565 | 21.11° C | 30% | 1020.8 hPa | - | - | - | - |
| 1777202665 | 21.67° C | 30% | 1020.8 hPa | - | - | - | - |
| 1777201765 | 22.22° C | 29% | 1020.8 hPa | - | - | - | - |
| 1777200865 | 21.11° C | 29% | 1020.9 hPa | - | - | - | - |
| 1777199964 | 20.56° C | 31% | 1020.9 hPa | - | - | - | - |
| 1777199064 | 22.22° C | 30% | 1020.9 hPa | - | - | - | - |
| 1777198164 | 22.78° C | 30% | 1020.9 hPa | - | - | - | - |
| 1777196364 | 21.67° C | 28% | 1021 hPa | - | - | - | - |
| 1777195463 | 22.78° C | 29% | 1021 hPa | - | - | - | - |
| 1777194563 | 20° C | 29% | 1020.8 hPa | - | - | - | - |
| 1777193663 | 20° C | 29% | 1020.7 hPa | - | - | - | - |
| 1777192763 | 21.67° C | 28% | 1020.5 hPa | - | - | - | - |
| 1777191863 | 21.67° C | 30% | 1020.5 hPa | - | - | - | - |
| 1777190963 | 20.56° C | 29% | 1020.5 hPa | - | - | - | - |
| 1777190063 | 22.22° C | 30% | 1020.2 hPa | - | - | - | - |
| 1777189165 | 21.67° C | 33% | 1020.1 hPa | - | - | - | - |
| 1777188265 | 22.22° C | 32% | 1019.9 hPa | - | - | - | - |
* Rain since midnight (hover to see other rain measurements)
** Current wind speed in m/s (hover to see current wind gust speed)